sat.trackr.live / text

‹ back to catalog

STARLINK-33976

NORAD 63858 · 2025-093Y

PAYLOAD ACTIVE UNKNOWN

§ Identity

Operator
Country
US
Launch date
2025-05-07
Launch site
AFETR
Launch vehicle
Mass (kg)
RCS (m²)

Purposes: comms

External: N2YO · Heavens-Above · Gunter

§ Orbital elements

Epoch: 2026-05-25T00:06:32.508288Z

Period
94.27 min
Inclination
43.0034°
Eccentricity
0.0001415
Mean motion
15.27590633 rev/d
Perigee alt
482.0 km
Apogee alt
484.0 km
Semi-major
6,861.2 km
B*
3.1667e-4
RAAN
6.8733°
Arg perigee
263.4260°
Mean anomaly
96.6430°
Rev number
5,948

§ Raw data

STARLINK-339761 63858U 25093Y   26145.00454292  .00008465  00000+0  31667-3 0  99912 63858  43.0034   6.8733 0001415 263.4260  96.6430 15.27590633 59482

JSON: /api/v1/satellites/63858 · /tle

For live sub-satellite position, see the globe view (requires WebGL).

§ Visibility from observer

Set your observer location to see the next 7 days of passes ≥ 10°. The values pass through the URL so the page stays shareable.

No JS? Fill the form by hand. The geolocation button needs JavaScript.